Regional Weather Roundup
Issued by NWS

Home | Current Version | Previous Version | Graphics & Text | Print | Product List | Glossary On
Versions: 1 2 3 4 5 6 7 8 9 10 11 12 13 14 15 16 17 18 19 20 21 22 23 24 25 26 27 28 29 30 31 32 33 34 35 36 37 38 39 40 41 42 43 44 45 46 47 48 49 50
000
ASUS45 KCYS 280810
RWRWY

WYOMING REGIONAL WEATHER ROUNDUP
NATIONAL WEATHER SERVICE CHEYENNE WY
100 AM MST SAT FEB 28 2015

NOTE:  "FAIR" INDICATES FEW OR NO CLOUDS BELOW 12,000 FEET
WITH NO SIGNIFICANT WEATHER AND/OR OBSTRUCTIONS TO VISIBILITY.

WYZ001-280900-
YELLOWSTONE NATIONAL PARK

CITY           SKY/WX    TMP DP  RH WIND       PRES   REMARKS
LK YELLOWSTONE   N/A     -6 -11  79 CALM      29.77S
W YELLOWSTONE  NOT AVBL

$$
WYZ002>013-054>058-071-098>099-280900-
NORTHERN WYOMING

CITY           SKY/WX    TMP DP  RH WIND       PRES   REMARKS
JACKSON        CLOUDY    16  12  86 N12       29.77R WCI   3
CODY           CLOUDY    10   9  92 N7        29.92R WCI   0
GREYBULL       FAIR      19   8  62 NW12      29.95S WCI   7
WORLAND        CLOUDY    19  15  84 CALM      29.94S
SHERIDAN       CLOUDY    13   5  70 NW15      30.02R WCI  -3
BUFFALO        FAIR      11   1  64 N9        29.94R WCI  -2
GILLETTE       FAIR       7   3  84 NW8       29.96R WCI  -6
HULETT         PTSUNNY   16  10  79 W5        29.96R WCI   9
NEWCASTLE      FAIR      12   7  79 SE5       29.97S WCI   4

$$
WYZ014>020-022>026-101>103-280900-
CENTRAL WYOMING

CITY           SKY/WX    TMP DP  RH WIND       PRES   REMARKS
BIG PINEY      FLURRIES  16  11  80 N6        29.75F WCI   7
PINEDALE       LGT SNOW  10   7  85 NW6       29.75F WCI   1
DUBOIS         LGT SNOW   9   5  85 CALM      29.79S
LANDER         CLOUDY    14   9  80 CALM      29.87F HAZE
RIVERTON       CLOUDY    14   9  80 SW5       29.89S WCI   6
CASPER         CLOUDY    15  10  80 N5        29.89R WCI   8
DOUGLAS        MOCLDY     7   4  87 CALM      29.91S

$$
WYZ021-027>030-104>119-280900-
SOUTHERN WYOMING

CITY           SKY/WX    TMP DP  RH WIND       PRES   REMARKS
EVANSTON       FAIR      19  14  81 SE6       29.68F WCI  11
FORT BRIDGER   FAIR      20  14  78 SW3       29.74S
ROCK SPRINGS   FAIR      13   7  77 NE16      29.75R WCI  -3
DIXON          FAIR      18   8  64 E8        29.79S WCI   8
RAWLINS        FAIR      12   6  77 NE6       29.78R WCI   3
SARATOGA       FAIR      12   5  73 CALM      29.77S
LARAMIE        FAIR      -1  -5  82 S8        29.76S WCI -15
CHEYENNE       FAIR       1  -2  87 SW7       29.81S FOG     WCI -12
TORRINGTON     FAIR       9   4  80 E10       29.94S WCI  -5
PINE BLUFFS    FAIR       3   1  92 MISG      29.91S

$$



USA.gov is the U.S. government's official web portal to all federal, state and local government web resources and services.